Location: Slave Lake
(55.2830°N, 114.7830°W)
Time: 14:02:41
(UTC-07:00)

Amateur Radio Satellites - All Passes

Search period start: 14 February 2016 13:32
Search period end: 15 February 2016 13:32
Location: Slave Lake, 55.2830°N, 114.7830°W

Satellite Date Start Highest point End Downlink Frequencies (MHz)
Time Altitude Azimuth
DANDE 14 Feb 13:32:59 13:39:54 55° 267° (W) 13:45:11 436.750
ESTCUBE 1 14 Feb 13:45:34 13:49:18 25° 302° (WNW) 13:53:00 437.505/2401.250
AO-85 14 Feb 13:48:10 13:53:03 31° 353° (N) 13:57:47 145.980
SO-50 14 Feb 13:50:11 13:53:23 18° 247° (WSW) 13:56:31 436.795
Gurwin Techsat 1B 14 Feb 13:50:16 13:55:36 81° 254° (WSW) 14:00:59 435.225
PCSat 14 Feb 13:51:09 13:55:47 28° 343° (NNW) 14:00:28 145.827
50 SAT 14 Feb 13:52:45 13:55:04 16° 304° (NW) 13:57:22 437.505
HO-68 14 Feb 13:57:17 13:58:35 11° 347° (NNW) 13:59:54 435.675
ITAMSAT 1 14 Feb 13:57:54 14:03:05 73° 69° (ENE) 14:08:19 435.822/435.867
CUSAT 1 14 Feb 13:59:51 14:03:50 20° 282° (WNW) 14:07:11 437.405
ITUPSAT 1 14 Feb 14:06:59 14:11:04 26° 92° (E) 14:15:06 437.325
TISAT 1 14 Feb 14:11:47 14:15:58 74° 289° (WNW) 14:20:08 437.305
BEESAT 14 Feb 14:11:54 14:16:05 29° 94° (E) 14:20:16 436.000
Cosmos 2499 14 Feb 14:14:01 14:18:07 14° 333° (NNW) 14:22:10 435.465 / 435.565
Oscar 19 14 Feb 14:18:25 14:22:39 25° 269° (W) 14:26:53 437.125/150
VELOX 1 14 Feb 14:22:23 14:25:02 16° 309° (NW) 14:27:40 145.980
SPROUT 14 Feb 14:23:15 14:26:57 29° 299° (WNW) 14:30:37 437.525
UKube-1 14 Feb 14:23:47 14:26:24 16° 308° (NW) 14:29:01 .
O/OREOS (USA 219) 14 Feb 14:37:42 14:40:55 18° 31° (NNE) 14:44:08 437.305
AISAT 14 Feb 14:40:51 14:42:27 12° 313° (NW) 14:44:02 437.250
ISS 14 Feb 14:43:23 14:44:13 11° 142° (SE) 14:45:01 145.825
CUBEBUG 1 14 Feb 14:45:13 14:46:52 12° 312° (NW) 14:48:32 437.445
DX 1 14 Feb 14:46:34 14:47:31 11° 314° (NW) 14:48:27 434.975-435.025
JAS-2 14 Feb 14:52:11 14:58:10 27° 270° (W) 15:03:41 435.910
AO-7 14 Feb 14:57:54 15:06:18 86° 66° (ENE) 15:14:43 29.400- 29.500
HORYU 2 14 Feb 14:59:48 15:03:40 31° 61° (ENE) 15:07:34 437.375
M-CUBED/EXP-1 PRIME 14 Feb 15:00:57 15:04:14 47° 62° (ENE) 15:07:26 437.505
SWISSCUBE 14 Feb 15:04:41 15:09:33 79° 105° (ESE) 15:14:22 437.505
AUBIESAT-1 14 Feb 15:05:58 15:09:13 45° 62° (ENE) 15:12:26 437.475
YUBILEINY 14 Feb 15:07:17 15:15:55 59° 269° (W) 15:24:29 435.215
Cosmos 2504 14 Feb 15:16:31 15:25:06 57° 68° (ENE) 15:33:06 435.465 / 435.565
DANDE 14 Feb 15:18:16 15:20:55 13° 292° (WNW) 15:23:21 436.750
Cosmos 2491 14 Feb 15:22:49 15:31:29 75° 96° (E) 15:40:11 435.465 / 435.565
AO-85 14 Feb 15:29:51 15:34:52 35° 17° (NNE) 15:39:37 145.980
STARS 14 Feb 15:32:49 15:35:39 17° 88° (E) 15:38:29 437.465
Gurwin Techsat 1B 14 Feb 15:33:06 15:36:25 17° 275° (W) 15:39:47 435.225
PCSat 14 Feb 15:36:21 15:40:49 25° 9° (N) 15:45:17 145.827
ITAMSAT 1 14 Feb 15:39:01 15:43:06 23° 270° (W) 15:47:15 435.822/435.867
RS-15 14 Feb 15:40:53 15:52:17 55° 354° (N) 16:04:15 29.354- 29.394
HO-68 14 Feb 15:41:42 15:43:16 11° 14° (NNE) 15:44:50 435.675
ITUPSAT 1 14 Feb 15:44:30 15:49:15 58° 292° (WNW) 15:53:59 437.325
TISAT 1 14 Feb 15:48:47 15:50:59 14° 309° (NW) 15:53:11 437.305
BEESAT 14 Feb 15:49:29 15:54:09 52° 294° (WNW) 15:58:48 436.000
KKS-1 14 Feb 16:03:11 16:07:30 47° 100° (E) 16:11:47 437.445
CUTE-I 14 Feb 16:15:36 16:19:46 24° 52° (NE) 16:23:57 437.470
O/OREOS (USA 219) 14 Feb 16:16:40 16:21:15 63° 54° (NE) 16:25:49 437.305
ISS 14 Feb 16:17:01 16:19:54 30° 162° (SSE) 16:22:48 145.825
Cubesat XI-IV 14 Feb 16:30:34 16:35:05 29° 56° (NE) 16:39:37 437.490
MOZHAYETS 4 14 Feb 16:35:09 16:39:38 45° 98° (E) 16:44:07
HORYU 2 14 Feb 16:35:54 16:40:09 44° 261° (W) 16:44:25 437.375
M-CUBED/EXP-1 PRIME 14 Feb 16:36:45 16:39:09 18° 260° (W) 16:41:31 437.505
GONETS M04 14 Feb 16:39:39 16:44:32 16° 31° (NNE) 16:49:25
AUBIESAT-1 14 Feb 16:41:33 16:44:03 19° 260° (W) 16:46:32 437.475
SWISSCUBE 14 Feb 16:43:13 16:46:53 22° 306° (NW) 16:50:32 437.505
BRITE-PL 14 Feb 16:45:31 16:49:43 23° 55° (NE) 16:53:45 437.365/2234.400
BEESAT 3 14 Feb 16:46:23 16:50:01 35° 125° (SE) 16:53:40 437.485
AO-7 14 Feb 16:52:55 17:00:04 30° 269° (W) 17:07:15 29.400- 29.500
LilacSat-2 14 Feb 16:56:23 16:59:31 25° 62° (ENE) 17:02:39 437.200
YUBILEINY 14 Feb 17:05:46 17:10:48 17° 293° (WNW) 17:15:49 435.215
STARS 14 Feb 17:08:13 17:12:36 80° 290° (WNW) 17:16:59 437.465
Cosmos 2504 14 Feb 17:10:17 17:18:24 46° 274° (W) 17:26:00 435.465 / 435.565
AO-85 14 Feb 17:10:43 17:16:07 79° 39° (NE) 17:21:07 145.980
BEESAT 2 14 Feb 17:20:07 17:23:58 46° 128° (SE) 17:27:51 435.950
PCSat 14 Feb 17:20:16 17:25:30 44° 34° (NNE) 17:30:43 145.827
Cosmos 2491 14 Feb 17:21:16 17:29:10 37° 302° (WNW) 17:37:09 435.465 / 435.565
HO-68 14 Feb 17:23:16 17:28:31 23° 40° (NE) 17:33:46 435.675
ITUPSAT 1 14 Feb 17:23:47 17:26:12 14° 313° (NW) 17:28:38 437.325
GOMX 1 14 Feb 17:23:56 17:27:56 24° 58° (ENE) 17:31:46 467.674
BEESAT 14 Feb 17:28:55 17:30:59 13° 315° (NW) 17:33:03 436.000
CUBESAT XI-V 14 Feb 17:30:55 17:34:41 23° 90° (E) 17:38:25 437.345
KKS-1 14 Feb 17:40:05 17:43:57 29° 300° (WNW) 17:47:46 437.445
ISS 14 Feb 17:52:52 17:55:59 44° 182° (S) 17:59:06 145.825
CUTE-I 14 Feb 17:53:55 17:59:17 85° 252° (WSW) 18:04:42 437.470
RS-15 14 Feb 17:55:04 18:06:57 66° 27° (NNE) 18:19:14 29.354- 29.394
O/OREOS (USA 219) 14 Feb 17:56:37 18:00:19 24° 255° (WSW) 18:04:02 437.305
CANX-2 14 Feb 18:01:31 18:03:35 13° 51° (NE) 18:05:38 2200.000
Cosmos 2499 14 Feb 18:08:33 18:14:16 19° 39° (NE) 18:19:44 435.465 / 435.565
Cubesat XI-IV 14 Feb 18:09:30 18:14:49 67° 257° (WSW) 18:20:12 437.490
MOZHAYETS 4 14 Feb 18:12:35 18:16:43 32° 298° (WNW) 18:20:51
DOVE 4 14 Feb 18:15:26 18:19:39 31° 62° (ENE) 18:23:40 437.250
AIST 2 14 Feb 18:20:26 18:23:56 26° 121° (ESE) 18:27:26 435.215
BRITE-PL 14 Feb 18:22:04 18:27:41 88° 253° (WSW) 18:33:00 437.365/2234.400
BEESAT 3 14 Feb 18:23:48 18:27:42 50° 326° (NW) 18:31:37 437.485
COMPASS 1 14 Feb 18:24:19 18:25:55 12° 50° (NE) 18:27:32 437.405
LilacSat-2 14 Feb 18:30:04 18:33:42 42° 261° (W) 18:37:21 437.200
CINEMA 3 14 Feb 18:31:20 18:34:19 18° 56° (NE) 18:37:16 145.822/145.860
GONETS M04 14 Feb 18:36:18 18:44:32 41° 61° (ENE) 18:52:45
STRAND 1 14 Feb 18:44:38 18:48:13 18° 87° (E) 18:51:46 437.568
STARS 14 Feb 18:45:43 18:48:21 16° 309° (NW) 18:50:59 437.465
SEEDS 14 Feb 18:46:24 18:49:35 21° 58° (ENE) 18:52:47 437.485
AAUSAT CUBESAT 2 14 Feb 18:46:42 18:49:08 15° 53° (NE) 18:51:33 437.432
CUTE 1.7 + AOD 2 14 Feb 18:49:15 18:52:48 27° 61° (ENE) 18:56:23 437.475
AO-85 14 Feb 18:51:49 18:56:12 27° 243° (WSW) 19:00:18 145.980
BEESAT 2 14 Feb 18:58:06 19:01:57 42° 329° (NNW) 19:05:49 435.950
GOMX 1 14 Feb 19:00:26 19:05:39 75° 256° (WSW) 19:10:34 467.674
PCSat 14 Feb 19:03:48 19:09:08 58° 236° (SW) 19:14:27 145.827
Oscar 11 14 Feb 19:04:49 19:06:38 12° 49° (NE) 19:08:28 145.826/435.025
Cosmos 2504 14 Feb 19:06:22 19:09:25 12° 298° (WNW) 19:12:25 435.465 / 435.565
CUBESAT XI-V 14 Feb 19:07:49 19:12:30 63° 290° (WNW) 19:17:08 437.345
HO-68 14 Feb 19:07:59 19:15:04 64° 63° (ENE) 19:22:10 435.675
Cosmos 2491 14 Feb 19:25:08 19:29:26 14° 332° (NNW) 19:33:47 435.465 / 435.565
UWE-3 14 Feb 19:27:17 19:30:07 18° 56° (NE) 19:32:57 435.000/436.395/437.385
ISS 14 Feb 19:29:13 19:32:02 27° 201° (SSW) 19:34:50 145.825
CANX-2 14 Feb 19:34:30 19:38:42 68° 71° (ENE) 19:42:57 2200.000
CUTE-I 14 Feb 19:36:40 19:40:11 18° 274° (W) 19:43:43 437.470
CUBEBUG 2 14 Feb 19:37:21 19:40:53 26° 61° (ENE) 19:44:22 437.445
DOVE 4 14 Feb 19:52:34 19:57:16 48° 261° (W) 20:01:44 437.250
Cubesat XI-IV 14 Feb 19:53:23 19:55:58 13° 277° (W) 19:58:34 437.490
PRISM 14 Feb 19:53:55 19:57:10 21° 92° (E) 20:00:23 437.425
COMPASS 1 14 Feb 19:56:36 20:00:43 61° 70° (ENE) 20:04:52 437.405
AIST 2 14 Feb 19:58:00 20:02:10 66° 321° (NW) 20:06:20 435.215
Cosmos 2499 14 Feb 20:01:32 20:09:51 53° 67° (ENE) 20:17:31 435.465 / 435.565
BRITE-PL 14 Feb 20:02:58 20:06:50 19° 274° (W) 20:10:35 437.365/2234.400
BEESAT 3 14 Feb 20:03:01 20:06:15 23° 348° (NNW) 20:09:28 437.485
CINEMA 3 14 Feb 20:06:36 20:11:03 81° 257° (WSW) 20:15:20 145.822/145.860
ZACube-1 14 Feb 20:07:53 20:11:26 28° 62° (ENE) 20:14:59 437.345
RS-15 14 Feb 20:07:59 20:19:51 68° 235° (SW) 20:32:00 29.354- 29.394
FUNcube-1 14 Feb 20:13:55 20:17:32 30° 62° (ENE) 20:21:10 145.935
AAUSAT CUBESAT 2 14 Feb 20:19:51 20:24:01 83° 76° (ENE) 20:28:14 437.432
SEEDS 14 Feb 20:20:45 20:24:56 66° 258° (WSW) 20:29:10 437.485
STRAND 1 14 Feb 20:22:55 20:28:08 89° 286° (WNW) 20:33:19 437.568
CUTE 1.7 + AOD 2 14 Feb 20:24:22 20:28:28 49° 261° (W) 20:32:38 437.475
GONETS M04 14 Feb 20:33:18 20:42:01 68° 266° (W) 20:50:44
BEESAT 2 14 Feb 20:37:33 20:40:45 22° 352° (N) 20:43:56 435.950
Oscar 11 14 Feb 20:37:43 20:41:57 60° 70° (ENE) 20:46:15 145.826/435.025
GOMX 1 14 Feb 20:41:42 20:44:30 15° 275° (W) 20:47:15 467.674
CUBESAT XI-V 14 Feb 20:46:36 20:49:03 14° 311° (NW) 20:51:30 437.345
PCSat 14 Feb 20:49:09 20:51:27 13° 257° (WSW) 20:53:46 145.827
DELFI C3 14 Feb 20:50:21 20:54:10 46° 68° (ENE) 20:58:03 145.870
AIST 1 14 Feb 20:56:20 21:00:36 49° 72° (ENE) 21:04:48
HO-68 14 Feb 20:56:35 21:03:12 38° 265° (W) 21:09:52 435.675
AISAT 14 Feb 20:57:33 20:59:10 12° 47° (NE) 21:00:48 437.250
DX 1 14 Feb 21:01:16 21:03:09 13° 48° (NE) 21:05:02 434.975-435.025
CUBEBUG 1 14 Feb 21:01:51 21:02:44 11° 46° (NE) 21:03:38 437.445
UWE-3 14 Feb 21:01:58 21:06:09 78° 255° (WSW) 21:10:20 435.000/436.395/437.385
CANX-2 14 Feb 21:12:04 21:15:03 18° 271° (W) 21:18:04 2200.000
CUBEBUG 2 14 Feb 21:13:17 21:17:22 47° 260° (W) 21:21:25 437.445
HUMSAT D 14 Feb 21:14:22 21:18:10 38° 66° (ENE) 21:22:00 437.325/437.525
PRISM 14 Feb 21:28:44 21:32:51 57° 292° (WNW) 21:36:56 437.425
Cosmos 2491 14 Feb 21:31:09 21:31:43 10° 7° (N) 21:32:16 435.465 / 435.565
50 SAT 14 Feb 21:32:14 21:34:43 17° 57° (ENE) 21:37:13 437.505
COMPASS 1 14 Feb 21:33:34 21:36:41 20° 270° (W) 21:39:50 437.405
AIST 2 14 Feb 21:37:47 21:41:20 26° 344° (NNW) 21:44:53 435.215
ESTCUBE 1 14 Feb 21:39:11 21:42:48 24° 57° (ENE) 21:46:27 437.505/2401.250
BEESAT 3 14 Feb 21:41:55 21:45:08 23° 12° (NNE) 21:48:21 437.485
ZACube-1 14 Feb 21:43:38 21:47:37 44° 261° (W) 21:51:37 437.345
CINEMA 3 14 Feb 21:46:57 21:48:54 13° 275° (W) 21:50:51 145.822/145.860
FUNcube-1 14 Feb 21:49:49 21:53:44 40° 262° (W) 21:57:41 145.935
Cosmos 2499 14 Feb 21:55:01 22:03:01 49° 272° (W) 22:10:24 435.465 / 435.565
AAUSAT CUBESAT 2 14 Feb 21:57:42 22:00:08 15° 273° (W) 22:02:35 437.432
STRAND 1 14 Feb 22:02:54 22:06:42 21° 308° (NW) 22:10:31 437.568
UKube-1 14 Feb 22:12:32 22:16:29 35° 63° (ENE) 22:20:26 .
VELOX 1 14 Feb 22:13:00 22:17:07 37° 63° (ENE) 22:21:14 145.980
SPROUT 14 Feb 22:13:41 22:16:21 16° 53° (NE) 22:19:01 437.525
Oscar 11 14 Feb 22:15:11 22:18:30 21° 270° (W) 22:21:50 145.826/435.025
BEESAT 2 14 Feb 22:16:24 22:19:47 25° 16° (NNE) 22:23:08 435.950
RS-15 14 Feb 22:21:21 22:30:08 24° 261° (W) 22:39:02 29.354- 29.394
UNISAT 6 14 Feb 22:24:51 22:28:28 25° 93° (E) 22:32:07 437.425
DELFI C3 14 Feb 22:26:01 22:29:19 24° 268° (W) 22:32:39 145.870
AISAT 14 Feb 22:30:26 22:34:47 53° 68° (ENE) 22:39:08 437.250
GONETS M04 14 Feb 22:31:28 22:37:12 20° 290° (WNW) 22:42:57
CUBEBUG 1 14 Feb 22:33:49 22:38:04 47° 67° (ENE) 22:42:19 437.445
DX 1 14 Feb 22:34:13 22:38:31 59° 69° (ENE) 22:42:52 434.975-435.025
AIST 1 14 Feb 22:34:26 22:37:57 24° 273° (W) 22:41:25
UWE-3 14 Feb 22:41:56 22:43:23 12° 276° (W) 22:44:51 435.000/436.395/437.385
HUMSAT D 14 Feb 22:50:19 22:53:55 30° 265° (W) 22:57:35 437.325/437.525
50 SAT 14 Feb 23:04:37 23:08:20 69° 257° (WSW) 23:12:05 437.505
PRISM 14 Feb 23:05:52 23:07:23 12° 312° (NW) 23:08:53 437.425
POLYITAN 1 14 Feb 23:07:18 23:10:13 18° 89° (E) 23:13:09 437.675
QB50P2 14 Feb 23:07:36 23:10:37 19° 90° (E) 23:13:36 145.880/145.840
ANTELSAT 14 Feb 23:09:24 23:13:43 58° 102° (ESE) 23:18:06 437.575/2403.000
TIGRISAT 14 Feb 23:14:18 23:18:37 61° 102° (ESE) 23:23:00 435.000
ESTCUBE 1 14 Feb 23:14:45 23:19:17 65° 258° (WSW) 23:23:51 437.505/2401.250
AIST 2 14 Feb 23:17:38 23:20:59 23° 8° (N) 23:24:20 435.215
BEESAT 3 14 Feb 23:19:46 23:23:41 51° 35° (NE) 23:27:33 437.485
Cosmos 2491 14 Feb 23:27:12 23:33:22 20° 41° (NE) 23:39:31 435.465 / 435.565
TISAT 1 14 Feb 23:35:17 23:39:02 32° 63° (ENE) 23:42:48 437.305
DUCHIFAT 1 14 Feb 23:35:22 23:39:02 28° 94° (E) 23:42:40 145.980
POPSAT HIP 1 14 Feb 23:35:24 23:39:09 30° 95° (E) 23:42:52 437.405
NANOSAT C BR1 14 Feb 23:36:29 23:40:13 30° 95° (E) 23:43:57 145.865
ITUPSAT 1 14 Feb 23:45:32 23:48:16 15° 48° (NE) 23:51:01 437.325
CUSAT 1 14 Feb 23:46:49 23:51:30 17° 76° (ENE) 23:55:58 437.405
QB50P1 14 Feb 23:47:23 23:51:21 38° 97° (E) 23:55:18 145.935-145.965
SPROUT 14 Feb 23:47:27 23:51:45 86° 78° (ENE) 23:56:04 437.525
UKube-1 14 Feb 23:48:29 23:52:32 38° 262° (W) 23:56:37 .
VELOX 1 14 Feb 23:49:31 23:53:39 36° 263° (W) 23:57:47 145.980
BEESAT 14 Feb 23:49:56 23:52:51 16° 50° (NE) 23:55:49 436.000
Cosmos 2499 14 Feb 23:50:40 23:53:53 13° 297° (WNW) 23:57:01 435.465 / 435.565
BEESAT 2 14 Feb 23:54:20 23:58:21 64° 39° (NE) 00:02:18 435.950
UNISAT 6 15 Feb 00:01:14 00:05:29 52° 292° (WNW) 00:09:47 437.425
AISAT 15 Feb 00:07:51 00:11:34 25° 267° (W) 00:15:18 437.250
CUBEBUG 1 15 Feb 00:10:44 00:14:35 28° 266° (W) 00:18:25 437.445
DX 1 15 Feb 00:11:37 00:15:05 22° 268° (W) 00:18:34 434.975-435.025
BUGSAT 1 15 Feb 00:12:39 00:16:23 35° 97° (E) 00:20:04 437.445
SWISSCUBE 15 Feb 00:41:06 00:45:28 37° 62° (ENE) 00:49:53 437.505
POLYITAN 1 15 Feb 00:42:19 00:46:31 69° 289° (WNW) 00:50:43 437.675
QB50P2 15 Feb 00:42:41 00:46:53 67° 289° (WNW) 00:51:04 145.880/145.840
Oscar 19 15 Feb 00:43:17 00:45:50 14° 83° (E) 00:48:22 437.125/150
ANTELSAT 15 Feb 00:46:39 00:50:11 25° 301° (WNW) 00:53:46 437.575/2403.000
TIGRISAT 15 Feb 00:51:36 00:55:02 23° 302° (WNW) 00:58:31 435.000
ESTCUBE 1 15 Feb 00:55:50 00:57:02 11° 278° (W) 00:58:16 437.505/2401.250
AIST 2 15 Feb 00:56:23 01:00:24 43° 31° (NNE) 01:04:22 435.215
BEESAT 3 15 Feb 00:57:44 01:01:21 33° 236° (SW) 01:04:55 437.485
DANDE 15 Feb 01:04:53 01:12:09 34° 85° (E) 01:19:15 436.750
TISAT 1 15 Feb 01:10:43 01:14:41 38° 262° (W) 01:18:39 437.305
DUCHIFAT 1 15 Feb 01:10:56 01:14:54 42° 294° (WNW) 01:18:51 145.980
POPSAT HIP 1 15 Feb 01:11:07 01:15:05 40° 294° (WNW) 01:19:01 437.405
NANOSAT C BR1 15 Feb 01:12:09 01:16:06 40° 294° (WNW) 01:20:01 145.865
ITUPSAT 1 15 Feb 01:20:34 01:25:19 66° 69° (ENE) 01:30:06 437.325
QB50P1 15 Feb 01:23:21 01:27:07 32° 297° (WNW) 01:30:52 145.935-145.965
Cosmos 2491 15 Feb 01:23:56 01:32:34 57° 69° (ENE) 01:41:12 435.465 / 435.565
CUSAT 1 15 Feb 01:24:41 01:32:37 59° 96° (E) 01:39:46 437.405
BEESAT 15 Feb 01:25:10 01:29:55 72° 71° (ENE) 01:34:43 436.000
SPROUT 15 Feb 01:25:52 01:28:21 15° 273° (W) 01:30:52 437.525
BEESAT 2 15 Feb 01:32:37 01:35:58 26° 239° (WSW) 01:39:17 435.950
KKS-1 15 Feb 01:33:14 01:36:28 20° 55° (NE) 01:39:42 437.445
UNISAT 6 15 Feb 01:40:02 01:41:20 11° 312° (NW) 01:42:40 437.425
BUGSAT 1 15 Feb 01:48:08 01:51:46 33° 297° (WNW) 01:55:24 437.445
JAS-2 15 Feb 01:52:37 01:57:46 35° 93° (E) 02:02:34 435.910
Gurwin Techsat 1B 15 Feb 01:59:24 02:03:43 24° 90° (E) 02:07:59 435.225
ITAMSAT 1 15 Feb 02:04:28 02:07:30 15° 85° (E) 02:10:30 435.822/435.867
MOZHAYETS 4 15 Feb 02:08:41 02:11:55 19° 54° (NE) 02:15:11
SWISSCUBE 15 Feb 02:18:45 02:23:16 41° 262° (W) 02:27:51 437.505
POLYITAN 1 15 Feb 02:19:35 02:21:38 13° 309° (NW) 02:23:41 437.675
QB50P2 15 Feb 02:20:00 02:21:59 13° 309° (NW) 02:23:57 145.880/145.840
Oscar 19 15 Feb 02:20:59 02:26:08 71° 104° (ESE) 02:31:15 437.125/150
YUBILEINY 15 Feb 02:21:05 02:28:58 39° 83° (E) 02:36:52 435.215
AIST 2 15 Feb 02:34:59 02:38:58 46° 233° (SW) 02:42:55 435.215
STARS 15 Feb 02:35:56 02:39:58 36° 63° (ENE) 02:44:00 437.465
DANDE 15 Feb 02:46:06 02:54:34 82° 285° (WNW) 03:02:46 436.750
AO-7 15 Feb 02:52:21 02:57:42 18° 82° (E) 03:02:59 29.400- 29.500
ITUPSAT 1 15 Feb 02:59:50 03:03:37 23° 269° (W) 03:07:26 437.325
BEESAT 15 Feb 03:04:40 03:08:15 21° 271° (W) 03:11:51 436.000
CUBESAT XI-V 15 Feb 03:07:23 03:09:03 12° 46° (NE) 03:10:42 437.345
CUSAT 1 15 Feb 03:07:25 03:15:10 47° 295° (WNW) 03:22:05 437.405
KKS-1 15 Feb 03:08:07 03:12:35 79° 254° (WSW) 03:17:04 437.445
Cosmos 2491 15 Feb 03:21:09 03:29:19 47° 273° (W) 03:37:31 435.465 / 435.565
JAS-2 15 Feb 03:37:39 03:43:11 49° 297° (WNW) 03:48:15 435.910
Gurwin Techsat 1B 15 Feb 03:38:52 03:44:12 71° 291° (WNW) 03:49:30 435.225
ITAMSAT 1 15 Feb 03:42:36 03:47:53 76° 105° (ESE) 03:53:08 435.822/435.867
MOZHAYETS 4 15 Feb 03:43:58 03:48:34 86° 256° (WSW) 03:53:13
Oscar 19 15 Feb 04:00:53 04:05:05 26° 305° (NW) 04:09:16 437.125/150
Cosmos 2504 15 Feb 04:03:16 04:11:09 39° 83° (E) 04:19:06 435.465 / 435.565
SO-50 15 Feb 04:09:43 04:14:00 30° 121° (ESE) 04:18:18 436.795
STARS 15 Feb 04:12:17 04:16:22 36° 263° (W) 04:20:27 437.465
YUBILEINY 15 Feb 04:16:32 04:25:18 69° 287° (WNW) 04:34:11 435.215
HORYU 2 15 Feb 04:19:44 04:23:11 21° 91° (E) 04:26:37 437.375
DANDE 15 Feb 04:31:29 04:38:42 30° 307° (NW) 04:45:36 436.750
STRAND 1 15 Feb 04:31:30 04:34:03 14° 44° (NE) 04:36:36 437.568
CUBESAT XI-V 15 Feb 04:40:53 04:45:26 49° 67° (ENE) 04:50:00 437.345
AO-7 15 Feb 04:43:57 04:52:17 64° 106° (ESE) 05:00:30 29.400- 29.500
KKS-1 15 Feb 04:47:51 04:49:56 13° 275° (W) 04:52:02 437.445
CUSAT 1 15 Feb 04:54:31 04:59:14 17° 318° (NW) 05:03:34 437.405
Gurwin Techsat 1B 15 Feb 05:19:50 05:23:22 18° 312° (NW) 05:26:53 435.225
Cosmos 2491 15 Feb 05:20:45 05:23:48 12° 298° (WNW) 05:26:53 435.465 / 435.565
ITAMSAT 1 15 Feb 05:22:42 05:26:56 25° 306° (NW) 05:31:09 435.822/435.867
MOZHAYETS 4 15 Feb 05:23:52 05:26:29 15° 275° (W) 05:29:06
JAS-2 15 Feb 05:24:09 05:26:56 14° 321° (NW) 05:29:37 435.910
M-CUBED/EXP-1 PRIME 15 Feb 05:41:59 05:45:24 80° 113° (ESE) 05:49:01 437.505
AUBIESAT-1 15 Feb 05:46:20 05:49:48 75° 113° (ESE) 05:53:28 437.475
SO-50 15 Feb 05:49:15 05:54:13 72° 321° (NW) 05:59:10 436.795
Cosmos 2504 15 Feb 05:55:15 06:04:05 71° 287° (WNW) 06:12:59 435.465 / 435.565
HORYU 2 15 Feb 05:55:45 06:00:10 63° 291° (WNW) 06:04:35 437.375
LilacSat-2 15 Feb 05:57:18 05:59:17 14° 87° (E) 06:01:16 437.200
CUTE-I 15 Feb 06:03:59 06:08:15 23° 90° (E) 06:12:29 437.470
STRAND 1 15 Feb 06:07:14 06:12:12 53° 66° (ENE) 06:17:14 437.568
YUBILEINY 15 Feb 06:17:14 06:24:04 24° 314° (NW) 06:30:58 435.215
CUBESAT XI-V 15 Feb 06:18:55 06:23:03 30° 267° (W) 06:27:13 437.345
Cubesat XI-IV 15 Feb 06:19:25 06:24:07 29° 93° (E) 06:28:47 437.490
BRITE-PL 15 Feb 06:20:57 06:24:06 18° 85° (E) 06:27:06 437.365/2234.400
DANDE 15 Feb 06:21:15 06:24:34 13° 333° (NNW) 06:27:48 436.750
AO-7 15 Feb 06:37:04 06:44:53 46° 309° (NW) 06:52:38 29.400- 29.500
O/OREOS (USA 219) 15 Feb 06:38:03 06:40:49 16° 100° (E) 06:43:37 437.305
PRISM 15 Feb 06:49:59 06:53:55 41° 65° (ENE) 06:57:53 437.425
GOMX 1 15 Feb 06:55:59 06:59:01 18° 87° (E) 07:01:58 467.674
M-CUBED/EXP-1 PRIME 15 Feb 07:17:42 07:19:42 15° 310° (NW) 07:21:45 437.505
AUBIESAT-1 15 Feb 07:21:52 07:24:03 16° 310° (NW) 07:26:17 437.475
LilacSat-2 15 Feb 07:30:21 07:34:09 78° 286° (WNW) 07:37:57 437.200
SO-50 15 Feb 07:30:58 07:35:26 32° 344° (NNW) 07:39:52 436.795
HORYU 2 15 Feb 07:33:46 07:35:58 14° 311° (NW) 07:38:10 437.375
CUTE-I 15 Feb 07:43:28 07:48:53 75° 290° (WNW) 07:54:15 437.470
DOVE 4 15 Feb 07:44:18 07:47:52 26° 92° (E) 07:51:21 437.250
STRAND 1 15 Feb 07:47:06 07:51:39 31° 266° (W) 07:56:15 437.568
GONETS M04 15 Feb 07:47:58 07:55:23 33° 80° (E) 08:02:50
Cosmos 2504 15 Feb 07:52:13 07:59:16 25° 312° (NW) 08:06:21 435.465 / 435.565
CINEMA 3 15 Feb 07:55:03 07:57:11 14° 86° (E) 07:59:20 145.822/145.860
UNISAT 6 15 Feb 07:58:02 07:58:55 11° 47° (NE) 07:59:48 437.425
BRITE-PL 15 Feb 07:58:33 08:03:20 78° 287° (WNW) 08:07:42 437.365/2234.400
SEEDS 15 Feb 07:58:37 08:00:55 14° 86° (E) 08:03:14 437.485
Cubesat XI-IV 15 Feb 07:59:15 08:04:33 60° 293° (WNW) 08:09:51 437.490
CUTE 1.7 + AOD 2 15 Feb 08:02:28 08:05:35 19° 89° (E) 08:08:40 437.475
O/OREOS (USA 219) 15 Feb 08:15:04 08:19:36 89° 308° (NW) 08:24:11 437.305
HO-68 15 Feb 08:15:19 08:21:44 33° 93° (E) 08:28:07 435.675
YUBILEINY 15 Feb 08:23:10 08:25:23 11° 347° (NNW) 08:27:37 435.215
PRISM 15 Feb 08:25:41 08:29:23 30° 265° (W) 08:33:07 437.425
AO-7 15 Feb 08:30:10 08:35:49 21° 334° (NNW) 08:41:27 29.400- 29.500
GOMX 1 15 Feb 08:33:17 08:37:43 69° 289° (WNW) 08:41:54 467.674
ANTELSAT 15 Feb 08:40:08 08:43:20 21° 57° (ENE) 08:46:32 437.575/2403.000
TIGRISAT 15 Feb 08:44:47 08:48:02 22° 57° (ENE) 08:51:18 435.000
UWE-3 15 Feb 08:45:27 08:47:29 13° 86° (E) 08:49:31 435.000/436.395/437.385
Cosmos 2499 15 Feb 08:46:39 08:54:22 35° 81° (E) 09:02:01 435.465 / 435.565
CANX-2 15 Feb 08:48:01 08:52:14 50° 100° (E) 08:56:26 2200.000
CUBEBUG 2 15 Feb 08:56:49 09:00:03 21° 91° (E) 09:03:19 437.445
DUCHIFAT 1 15 Feb 09:02:04 09:03:14 11° 48° (NE) 09:04:24 145.980
POPSAT HIP 1 15 Feb 09:02:18 09:03:47 12° 49° (NE) 09:05:17 437.405
NANOSAT C BR1 15 Feb 09:03:06 09:04:34 12° 49° (NE) 09:06:02 145.865
LilacSat-2 15 Feb 09:06:10 09:07:52 13° 306° (NW) 09:09:34 437.200
COMPASS 1 15 Feb 09:07:47 09:11:50 42° 98° (E) 09:15:52 437.405
AO-85 15 Feb 09:12:14 09:16:36 25° 116° (ESE) 09:21:01 145.980
SO-50 15 Feb 09:12:49 09:17:09 29° 9° (N) 09:21:24 436.795
QB50P1 15 Feb 09:13:27 09:15:41 14° 52° (NE) 09:17:56 145.935-145.965
DOVE 4 15 Feb 09:21:47 09:25:51 45° 293° (WNW) 09:29:48 437.250
CUTE-I 15 Feb 09:24:27 09:28:11 19° 311° (NW) 09:31:53 437.470
ZACube-1 15 Feb 09:24:39 09:27:57 21° 91° (E) 09:31:16 437.345
FUNcube-1 15 Feb 09:30:22 09:33:47 23° 92° (E) 09:37:14 145.935
AAUSAT CUBESAT 2 15 Feb 09:30:27 09:34:38 57° 101° (E) 09:38:47 437.432
UNISAT 6 15 Feb 09:30:37 09:34:45 50° 68° (ENE) 09:38:54 437.425
CINEMA 3 15 Feb 09:30:50 09:35:01 89° 299° (WNW) 09:39:14 145.822/145.860
SEEDS 15 Feb 09:33:00 09:37:17 90° 73° (ENE) 09:41:35 437.485
AIST 1 15 Feb 09:34:09 09:37:24 20° 85° (E) 09:40:39
BUGSAT 1 15 Feb 09:36:40 09:38:27 13° 51° (NE) 09:40:15 437.445
CUTE 1.7 + AOD 2 15 Feb 09:37:36 09:41:53 67° 288° (WNW) 09:46:09 437.475
BRITE-PL 15 Feb 09:38:08 09:41:02 16° 310° (NW) 09:43:50 437.365/2234.400
Cubesat XI-IV 15 Feb 09:40:30 09:43:41 16° 315° (NW) 09:46:51 437.490
GONETS M04 15 Feb 09:42:46 09:51:29 78° 284° (WNW) 10:00:19
PCSat 15 Feb 09:52:56 09:57:31 29° 114° (ESE) 10:02:08 145.827
Oscar 11 15 Feb 09:53:37 09:57:50 45° 99° (E) 10:02:01 145.826/435.025
Cosmos 2504 15 Feb 09:54:19 09:56:51 11° 343° (NNW) 09:59:22 435.465 / 435.565
DANDE 15 Feb 09:55:12 09:58:38 14° 30° (NNE) 10:01:46 436.750
DELFI C3 15 Feb 09:56:03 09:59:36 28° 94° (E) 10:03:08 145.870
O/OREOS (USA 219) 15 Feb 09:56:03 09:59:39 22° 324° (NW) 10:03:17 437.305
HO-68 15 Feb 10:02:52 10:10:04 72° 295° (WNW) 10:17:13 435.675
POLYITAN 1 15 Feb 10:06:35 10:10:24 34° 64° (ENE) 10:14:14 437.675
QB50P2 15 Feb 10:06:52 10:10:43 35° 64° (ENE) 10:14:35 145.880/145.840
GOMX 1 15 Feb 10:12:49 10:15:01 14° 311° (NW) 10:17:10 467.674
CUSAT 1 15 Feb 10:13:04 10:16:42 16° 41° (NE) 10:19:50 437.405
ANTELSAT 15 Feb 10:15:26 10:19:41 68° 257° (WSW) 10:23:58 437.575/2403.000
TIGRISAT 15 Feb 10:20:11 10:24:25 64° 258° (WSW) 10:28:40 435.000
UWE-3 15 Feb 10:20:23 10:24:38 85° 106° (ESE) 10:28:57 435.000/436.395/437.385
AO-7 15 Feb 10:21:30 10:25:40 15° 1° (N) 10:29:50 29.400- 29.500
YUBILEINY 15 Feb 10:24:03 10:27:45 13° 23° (NNE) 10:31:27 435.215
CANX-2 15 Feb 10:24:18 10:27:54 27° 299° (WNW) 10:31:31 2200.000
HUMSAT D 15 Feb 10:26:00 10:29:37 27° 94° (E) 10:33:13 437.325/437.525
JAS-2 15 Feb 10:30:39 10:33:57 14° 39° (NE) 10:37:05 435.910
Oscar 19 15 Feb 10:31:36 10:33:06 11° 41° (NE) 10:34:37 437.125/150
CUBEBUG 2 15 Feb 10:32:55 10:37:04 59° 290° (WNW) 10:41:16 437.445
DUCHIFAT 1 15 Feb 10:34:00 10:38:06 54° 69° (ENE) 10:42:13 145.980
POPSAT HIP 1 15 Feb 10:34:38 10:38:46 58° 69° (ENE) 10:42:55 437.405
NANOSAT C BR1 15 Feb 10:35:22 10:39:31 57° 69° (ENE) 10:43:39 145.865
Cosmos 2499 15 Feb 10:38:00 10:46:54 77° 284° (WNW) 10:55:44 435.465 / 435.565
RS-15 15 Feb 10:40:41 10:50:38 39° 109° (ESE) 11:01:04 29.354- 29.394
COMPASS 1 15 Feb 10:43:37 10:47:19 30° 298° (WNW) 10:51:01 437.405
QB50P1 15 Feb 10:46:36 10:50:49 74° 72° (ENE) 10:55:03 145.935-145.965
AO-85 15 Feb 10:51:08 10:56:38 90° 139° (SE) 11:02:08 145.980
SO-50 15 Feb 10:53:44 10:58:34 54° 32° (NNE) 11:03:17 436.795
ZACube-1 15 Feb 11:00:26 11:04:36 58° 290° (WNW) 11:08:50 437.345
ESTCUBE 1 15 Feb 11:00:46 11:03:49 17° 88° (E) 11:06:50 437.505/2401.250
FUNcube-1 15 Feb 11:06:13 11:10:21 54° 291° (WNW) 11:14:33 145.935
AAUSAT CUBESAT 2 15 Feb 11:06:29 11:09:51 23° 301° (WNW) 11:13:12 437.432
UNISAT 6 15 Feb 11:08:15 11:11:46 24° 268° (W) 11:15:18 437.425
BUGSAT 1 15 Feb 11:09:01 11:13:08 66° 71° (ENE) 11:17:15 437.445
CINEMA 3 15 Feb 11:09:08 11:11:38 16° 306° (NW) 11:14:09 145.822/145.860
SEEDS 15 Feb 11:09:43 11:12:28 17° 305° (NW) 11:15:12 437.485
AIST 1 15 Feb 11:10:14 11:14:37 62° 285° (WNW) 11:19:00
CUTE 1.7 + AOD 2 15 Feb 11:14:55 11:17:00 13° 309° (NW) 11:19:05 437.475
UKube-1 15 Feb 11:28:26 11:31:51 22° 92° (E) 11:35:14 .
Oscar 11 15 Feb 11:30:03 11:33:50 30° 299° (WNW) 11:37:38 145.826/435.025
DELFI C3 15 Feb 11:30:50 11:34:39 40° 294° (WNW) 11:38:27 145.870
VELOX 1 15 Feb 11:32:12 11:35:58 26° 93° (E) 11:39:41 145.980
PCSat 15 Feb 11:35:05 11:40:32 74° 315° (NW) 11:46:00 145.827
DANDE 15 Feb 11:37:36 11:44:11 37° 57° (ENE) 11:49:20 436.750
O/OREOS (USA 219) 15 Feb 11:39:43 11:40:49 11° 349° (NNW) 11:41:54 437.305
POLYITAN 1 15 Feb 11:42:20 11:46:14 36° 263° (W) 11:50:08 437.675
QB50P2 15 Feb 11:42:42 11:46:34 35° 263° (W) 11:50:29 145.880/145.840
GONETS M04 15 Feb 11:42:53 11:49:58 27° 311° (NW) 11:57:08
AISAT 15 Feb 11:49:50 11:53:59 38° 97° (E) 11:58:05 437.250
Gurwin Techsat 1B 15 Feb 11:50:08 11:53:40 18° 48° (NE) 11:57:12 435.225
HO-68 15 Feb 11:51:14 11:56:47 25° 318° (NW) 12:02:20 435.675
DX 1 15 Feb 11:51:18 11:55:24 39° 98° (E) 11:59:29 434.975-435.025
CUBEBUG 1 15 Feb 11:51:22 11:55:23 33° 96° (E) 11:59:18 437.445
Cosmos 2504 15 Feb 11:53:02 11:55:38 11° 17° (NNE) 11:58:11 435.465 / 435.565
ITAMSAT 1 15 Feb 11:53:19 11:55:32 13° 42° (NE) 11:57:46 435.822/435.867
CUSAT 1 15 Feb 11:54:44 12:00:38 62° 70° (ENE) 12:05:00 437.405
ANTELSAT 15 Feb 11:56:38 11:57:18 10° 277° (W) 11:57:58 437.575/2403.000
UWE-3 15 Feb 11:57:51 12:00:37 17° 305° (NW) 12:03:26 435.000/436.395/437.385
HUMSAT D 15 Feb 12:01:27 12:05:27 45° 293° (WNW) 12:09:28 437.325/437.525
50 SAT 15 Feb 12:02:43 12:06:31 58° 102° (ESE) 12:10:16 437.505
Oscar 19 15 Feb 12:06:23 12:11:13 41° 62° (ENE) 12:16:02 437.125/150
AO-7 15 Feb 12:09:41 12:15:35 22° 29° (NNE) 12:21:29 29.400- 29.500
DUCHIFAT 1 15 Feb 12:10:47 12:14:08 23° 268° (W) 12:17:30 145.980
JAS-2 15 Feb 12:11:04 12:17:42 44° 61° (ENE) 12:23:38 435.910
CUBEBUG 2 15 Feb 12:11:27 12:12:55 12° 310° (NW) 12:14:23 437.445
POPSAT HIP 1 15 Feb 12:11:40 12:14:56 21° 269° (W) 12:18:12 437.405
NANOSAT C BR1 15 Feb 12:12:22 12:15:37 21° 269° (W) 12:18:53 145.865
YUBILEINY 15 Feb 12:20:43 12:28:26 32° 54° (NE) 12:36:04 435.215
QB50P1 15 Feb 12:24:20 12:27:08 17° 272° (W) 12:29:55 145.935-145.965
AO-85 15 Feb 12:32:37 12:37:46 39° 339° (NNW) 12:42:50 145.980
Cosmos 2499 15 Feb 12:34:22 12:41:38 27° 310° (NW) 12:48:48 435.465 / 435.565
SO-50 15 Feb 12:34:27 12:39:04 43° 234° (SW) 12:43:31 436.795
ESTCUBE 1 15 Feb 12:36:39 12:41:14 81° 286° (WNW) 12:45:46 437.505/2401.250
ZACube-1 15 Feb 12:38:36 12:40:07 12° 310° (NW) 12:41:38 437.345
FUNcube-1 15 Feb 12:44:36 12:45:47 11° 311° (NW) 12:46:57 145.935
Cosmos 2491 15 Feb 12:44:40 12:48:05 13° 63° (ENE) 12:51:30 435.465 / 435.565
BUGSAT 1 15 Feb 12:46:01 12:48:58 18° 270° (W) 12:51:53 437.445
TISAT 1 15 Feb 12:47:39 12:50:49 20° 91° (E) 12:53:58 437.305
RS-15 15 Feb 12:50:33 13:01:57 88° 317° (NW) 13:14:03 29.354- 29.394
AIST 1 15 Feb 12:51:32 12:53:13 12° 307° (NW) 12:54:53
SPROUT 15 Feb 13:02:14 13:06:29 61° 102° (ESE) 13:10:43 437.525
UKube-1 15 Feb 13:04:00 13:08:16 58° 292° (WNW) 13:12:31 .
VELOX 1 15 Feb 13:08:24 13:12:42 50° 293° (WNW) 13:16:58 145.980
ITUPSAT 1 15 Feb 13:16:50 13:17:14 10° 81° (E) 13:17:38 437.325
PCSat 15 Feb 13:19:59 13:24:46 30° 339° (NNW) 13:29:34 145.827
BEESAT 15 Feb 13:20:08 13:21:34 11° 82° (E) 13:23:00 436.000
O/OREOS (USA 219) 15 Feb 13:20:53 13:22:25 11° 15° (NNE) 13:23:57 437.305
